Time,TemperatureF,DewpointF,PressureIn,WindDirection,WindDirectionDegrees,WindSpeedMPH,WindSpeedGustMPH,Humidity,HourlyPrecipIn,Conditions,Clouds,dailyrainin,SoftwareType,DateUTC
2015-04-25 00:05:00,71.7,70.5,29.83,SSE,168,3.0,3.0,96,0.00,,,0.00,Wunderground v.1.15,2015-04-25 05:05:00,
2015-04-25 00:11:00,72.2,71.3,29.82,South,175,2.0,2.0,97,0.00,,,0.00,Wunderground v.1.15,2015-04-25 05:11:00,
2015-04-25 00:17:00,72.7,71.8,29.82,SSE,163,0.0,3.0,97,0.00,,,0.00,Wunderground v.1.15,2015-04-25 05:17:00,
2015-04-25 00:22:00,73.0,72.1,29.82,SSE,163,3.0,3.0,97,0.00,,,0.00,Wunderground v.1.15,2015-04-25 05:22:00,
2015-04-25 00:28:00,73.3,72.4,29.81,South,171,3.0,6.0,97,0.00,,,0.00,Wunderground v.1.15,2015-04-25 05:28:00,
2015-04-25 00:34:00,73.5,72.3,29.81,SSE,153,3.0,5.0,96,0.00,,,0.00,Wunderground v.1.15,2015-04-25 05:34:00,
2015-04-25 00:40:00,73.7,72.5,29.80,South,171,4.0,4.0,96,0.00,,,0.00,Wunderground v.1.15,2015-04-25 05:40:00,
2015-04-25 00:45:00,73.8,72.6,29.81,SSE,165,0.0,4.0,96,0.00,,,0.00,Wunderground v.1.15,2015-04-25 05:45:00,
2015-04-25 00:51:00,73.9,72.4,29.81,SSE,164,0.0,4.0,95,0.00,,,0.00,Wunderground v.1.15,2015-04-25 05:51:00,
2015-04-25 00:57:00,74.1,72.6,29.80,SSE,155,4.0,4.0,95,0.00,,,0.00,Wunderground v.1.15,2015-04-25 05:57:00,
2015-04-25 01:03:00,74.2,72.7,29.80,SSE,163,3.0,5.0,95,0.00,,,0.00,Wunderground v.1.15,2015-04-25 06:03:00,
2015-04-25 01:09:00,74.3,72.8,29.80,SSE,163,1.0,7.0,95,0.00,,,0.00,Wunderground v.1.15,2015-04-25 06:09:00,
2015-04-25 01:15:00,74.4,72.9,29.80,South,169,0.0,4.0,95,0.00,,,0.00,Wunderground v.1.15,2015-04-25 06:15:00,
2015-04-25 01:21:00,74.4,72.9,29.80,SSE,167,3.0,3.0,95,0.00,,,0.00,Wunderground v.1.15,2015-04-25 06:21:00,
2015-04-25 01:27:00,74.4,72.9,29.79,SSE,168,0.0,3.0,95,0.00,,,0.00,Wunderground v.1.15,2015-04-25 06:27:00,
2015-04-25 01:32:00,74.3,72.8,29.79,SSE,165,3.0,3.0,95,0.00,,,0.00,Wunderground v.1.15,2015-04-25 06:32:00,
2015-04-25 01:38:00,74.3,73.1,29.79,South,183,0.0,5.0,96,0.00,,,0.00,Wunderground v.1.15,2015-04-25 06:38:00,
2015-04-25 01:44:00,74.3,73.1,29.80,SSE,168,3.0,3.0,96,0.00,,,0.00,Wunderground v.1.15,2015-04-25 06:44:00,
2015-04-25 01:50:00,74.3,73.1,29.79,South,169,4.0,4.0,96,0.00,,,0.00,Wunderground v.1.15,2015-04-25 06:50:00,
2015-04-25 01:55:00,74.3,73.1,29.79,SSE,159,2.0,4.0,96,0.00,,,0.00,Wunderground v.1.15,2015-04-25 06:55:00,
2015-04-25 02:00:00,74.3,73.1,29.79,SSE,153,6.0,6.0,96,0.00,,,0.00,Wunderground v.1.15,2015-04-25 07:00:00,
2015-04-25 02:05:00,74.3,73.4,29.79,South,172,3.0,7.0,97,0.00,,,0.00,Wunderground v.1.15,2015-04-25 07:05:00,
2015-04-25 02:10:00,74.4,73.2,29.79,SE,138,1.0,4.0,96,0.00,,,0.00,Wunderground v.1.15,2015-04-25 07:10:00,
2015-04-25 02:15:00,74.4,73.2,29.80,SSE,159,3.0,7.0,96,0.00,,,0.00,Wunderground v.1.15,2015-04-25 07:15:00,
2015-04-25 02:20:00,74.4,73.2,29.80,SSE,162,0.0,4.0,96,0.00,,,0.00,Wunderground v.1.15,2015-04-25 07:20:00,
2015-04-25 02:25:00,74.4,73.2,29.79,South,180,0.0,6.0,96,0.00,,,0.00,Wunderground v.1.15,2015-04-25 07:25:00,
2015-04-25 02:30:00,74.5,73.3,29.79,SSE,159,0.0,1.0,96,0.00,,,0.00,Wunderground v.1.15,2015-04-25 07:30:00,
2015-04-25 02:35:00,74.5,73.3,29.79,South,172,2.0,5.0,96,0.00,,,0.00,Wunderground v.1.15,2015-04-25 07:35:00,
2015-04-25 02:40:00,74.5,73.3,29.78,SSE,167,2.0,4.0,96,0.00,,,0.00,Wunderground v.1.15,2015-04-25 07:40:00,
2015-04-25 02:45:00,74.5,73.3,29.78,South,169,0.0,6.0,96,0.00,,,0.00,Wunderground v.1.15,2015-04-25 07:45:00,
2015-04-25 02:50:00,74.6,73.7,29.78,SE,142,2.0,8.0,97,0.00,,,0.00,Wunderground v.1.15,2015-04-25 07:50:00,
2015-04-25 02:55:00,74.6,73.4,29.78,SSE,155,3.0,8.0,96,0.00,,,0.00,Wunderground v.1.15,2015-04-25 07:55:00,
2015-04-25 03:00:00,74.6,73.4,29.77,SSE,168,6.0,8.0,96,0.00,,,0.00,Wunderground v.1.15,2015-04-25 08:00:00,
2015-04-25 03:05:00,74.6,73.4,29.77,South,181,7.0,9.0,96,0.00,,,0.00,Wunderground v.1.15,2015-04-25 08:05:00,
2015-04-25 03:11:00,74.6,73.4,29.76,SSE,158,4.0,6.0,96,0.00,,,0.00,Wunderground v.1.15,2015-04-25 08:11:00,
2015-04-25 03:16:00,74.6,73.4,29.76,SSE,163,0.0,7.0,96,0.00,,,0.00,Wunderground v.1.15,2015-04-25 08:16:00,
2015-04-25 03:21:00,74.7,73.5,29.77,SSE,165,3.0,7.0,96,0.00,,,0.00,Wunderground v.1.15,2015-04-25 08:21:00,
2015-04-25 03:26:00,74.7,73.5,29.77,SSE,165,2.0,7.0,96,0.00,,,0.00,Wunderground v.1.15,2015-04-25 08:26:00,
2015-04-25 03:31:00,74.8,73.6,29.77,SSE,166,3.0,5.0,96,0.00,,,0.00,Wunderground v.1.15,2015-04-25 08:31:00,
2015-04-25 03:36:00,74.8,73.6,29.77,South,173,4.0,8.0,96,0.00,,,0.00,Wunderground v.1.15,2015-04-25 08:36:00,
2015-04-25 03:41:00,74.9,73.7,29.77,South,173,0.0,3.0,96,0.00,,,0.00,Wunderground v.1.15,2015-04-25 08:41:00,
2015-04-25 03:46:00,74.9,73.7,29.78,SSE,156,0.0,4.0,96,0.00,,,0.00,Wunderground v.1.15,2015-04-25 08:46:00,
2015-04-25 03:51:00,74.9,73.7,29.78,SSE,162,0.0,1.0,96,0.00,,,0.00,Wunderground v.1.15,2015-04-25 08:51:00,
2015-04-25 03:56:00,75.0,73.8,29.78,SSE,162,0.0,1.0,96,0.00,,,0.00,Wunderground v.1.15,2015-04-25 08:56:00,
2015-04-25 04:01:00,75.0,73.8,29.78,SSE,160,0.0,1.0,96,0.00,,,0.00,Wunderground v.1.15,2015-04-25 09:01:00,
2015-04-25 04:06:00,75.0,73.8,29.79,SSE,159,0.0,1.0,96,0.00,,,0.00,Wunderground v.1.15,2015-04-25 09:06:00,
2015-04-25 04:11:00,75.0,73.8,29.79,SSE,162,4.0,6.0,96,0.00,,,0.00,Wunderground v.1.15,2015-04-25 09:11:00,
2015-04-25 04:16:00,75.1,73.9,29.79,SSE,167,2.0,6.0,96,0.00,,,0.00,Wunderground v.1.15,2015-04-25 09:16:00,
2015-04-25 04:21:00,75.1,73.9,29.79,SSE,165,0.0,2.0,96,0.00,,,0.00,Wunderground v.1.15,2015-04-25 09:21:00,
2015-04-25 04:26:00,75.2,74.0,29.80,SSE,165,0.0,5.0,96,0.00,,,0.00,Wunderground v.1.15,2015-04-25 09:26:00,
2015-04-25 04:31:00,75.2,74.0,29.80,SSE,166,0.0,1.0,96,0.00,,,0.00,Wunderground v.1.15,2015-04-25 09:31:00,
2015-04-25 04:36:00,75.2,74.0,29.80,SSE,161,0.0,2.0,96,0.00,,,0.00,Wunderground v.1.15,2015-04-25 09:36:00,
2015-04-25 04:41:00,75.2,74.0,29.80,SSE,161,0.0,0.0,96,0.00,,,0.00,Wunderground v.1.15,2015-04-25 09:41:00,
2015-04-25 04:46:00,75.2,74.0,29.80,SSE,161,0.0,0.0,96,0.00,,,0.00,Wunderground v.1.15,2015-04-25 09:46:00,
2015-04-25 04:51:00,75.2,74.0,29.81,SSE,147,0.0,3.0,96,0.00,,,0.00,Wunderground v.1.15,2015-04-25 09:51:00,
2015-04-25 04:56:00,75.2,74.0,29.80,SSE,147,0.0,3.0,96,0.00,,,0.00,Wunderground v.1.15,2015-04-25 09:56:00,
2015-04-25 05:01:00,75.2,74.0,29.80,SSE,149,0.0,0.0,96,0.00,,,0.00,Wunderground v.1.15,2015-04-25 10:01:00,
2015-04-25 05:06:00,75.2,74.0,29.79,SE,139,7.0,8.0,96,0.00,,,0.00,Wunderground v.1.15,2015-04-25 10:06:00,
2015-04-25 05:11:00,75.2,74.0,29.80,SSE,166,0.0,1.0,96,0.00,,,0.00,Wunderground v.1.15,2015-04-25 10:11:00,
2015-04-25 05:16:00,75.3,74.1,29.80,SSE,166,0.0,1.0,96,0.00,,,0.00,Wunderground v.1.15,2015-04-25 10:16:00,
2015-04-25 05:21:00,75.3,74.1,29.80,SSE,165,0.0,0.0,96,0.00,,,0.00,Wunderground v.1.15,2015-04-25 10:21:00,
2015-04-25 05:26:00,75.3,74.1,29.80,SSE,165,0.0,0.0,96,0.00,,,0.00,Wunderground v.1.15,2015-04-25 10:26:00,
2015-04-25 05:31:00,75.3,74.1,29.80,South,175,0.0,0.0,96,0.00,,,0.00,Wunderground v.1.15,2015-04-25 10:31:00,
2015-04-25 05:37:00,75.3,74.1,29.80,South,175,0.0,0.0,96,0.00,,,0.00,Wunderground v.1.15,2015-04-25 10:37:00,
2015-04-25 05:42:00,75.3,74.1,29.80,South,173,0.0,2.0,96,0.00,,,0.00,Wunderground v.1.15,2015-04-25 10:42:00,
2015-04-25 05:47:00,75.3,74.1,29.80,South,171,0.0,2.0,96,0.00,,,0.00,Wunderground v.1.15,2015-04-25 10:47:00,
2015-04-25 05:52:00,75.3,74.1,29.80,SSE,157,0.0,0.0,96,0.00,,,0.00,Wunderground v.1.15,2015-04-25 10:52:00,
2015-04-25 05:57:00,75.3,74.1,29.79,SSE,157,2.0,6.0,96,0.00,,,0.00,Wunderground v.1.15,2015-04-25 10:57:00,
2015-04-25 06:02:00,75.3,74.1,29.78,SSE,163,3.0,4.0,96,0.00,,,0.00,Wunderground v.1.15,2015-04-25 11:02:00,
2015-04-25 06:07:00,75.3,74.1,29.79,SSE,167,1.0,5.0,96,0.00,,,0.00,Wunderground v.1.15,2015-04-25 11:07:00,
2015-04-25 06:12:00,75.4,74.2,29.78,SSE,166,0.0,4.0,96,0.00,,,0.01,Wunderground v.1.15,2015-04-25 11:12:00,
2015-04-25 06:17:00,75.4,74.2,29.79,SSE,167,0.0,4.0,96,0.13,,,0.02,Wunderground v.1.15,2015-04-25 11:17:00,
2015-04-25 06:22:00,75.4,74.2,29.80,NE,43,0.0,4.0,96,0.10,,,0.02,Wunderground v.1.15,2015-04-25 11:22:00,
2015-04-25 06:27:00,75.3,74.4,29.80,SSE,167,0.0,6.0,97,0.05,,,0.02,Wunderground v.1.15,2015-04-25 11:27:00,
2015-04-25 06:32:00,75.3,74.4,29.80,East,89,0.0,0.0,97,0.04,,,0.02,Wunderground v.1.15,2015-04-25 11:32:00,
2015-04-25 06:37:00,75.3,74.4,29.81,East,95,0.0,0.0,97,0.91,,,0.05,Wunderground v.1.15,2015-04-25 11:37:00,
2015-04-25 06:42:00,75.3,74.4,29.79,East,94,0.0,0.0,97,0.13,,,0.06,Wunderground v.1.15,2015-04-25 11:42:00,
2015-04-25 06:47:00,75.3,74.4,29.79,East,88,0.0,0.0,97,0.12,,,0.07,Wunderground v.1.15,2015-04-25 11:47:00,
2015-04-25 06:52:00,75.3,74.4,29.80,East,84,0.0,0.0,97,0.06,,,0.07,Wunderground v.1.15,2015-04-25 11:52:00,
2015-04-25 06:57:00,75.3,74.4,29.80,East,84,0.0,0.0,97,0.04,,,0.07,Wunderground v.1.15,2015-04-25 11:57:00,
2015-04-25 07:02:00,75.3,74.4,29.80,East,84,0.0,0.0,97,0.00,,,0.07,Wunderground v.1.15,2015-04-25 12:02:00,
2015-04-25 07:07:00,75.3,74.4,29.80,East,84,0.0,0.0,97,0.00,,,0.07,Wunderground v.1.15,2015-04-25 12:07:00,
2015-04-25 07:12:00,75.3,74.7,29.79,East,84,0.0,0.0,98,0.00,,,0.07,Wunderground v.1.15,2015-04-25 12:12:00,
2015-04-25 07:17:00,75.4,74.8,29.80,ENE,76,0.0,0.0,98,0.00,,,0.07,Wunderground v.1.15,2015-04-25 12:17:00,
2015-04-25 07:22:00,75.4,74.8,29.80,ENE,69,0.0,0.0,98,0.00,,,0.07,Wunderground v.1.15,2015-04-25 12:22:00,
2015-04-25 07:27:00,75.5,74.9,29.79,NE,47,0.0,0.0,98,0.00,,,0.07,Wunderground v.1.15,2015-04-25 12:27:00,